Regional Weather Roundup
Issued by NWS

Home | Current Version | Previous Version | Text Only | Print | Product List | Glossary Off
Versions: 1 2 3 4 5 6 7 8 9 10 11 12 13 14 15 16 17 18 19 20 21 22 23 24 25 26 27 28 29 30 31 32 33 34 35 36 37 38 39 40 41 42 43 44 45 46 47 48 49 50

000
ASUS45 KSLC 311110
RWRUT

UTAH REGIONAL WEATHER ROUNDUP
NATIONAL WEATHER SERVICE SALT LAKE CITY UT
500 AM MDT MON AUG 31 2015

UTZ001>011-023>025-311200-

NORTHERN UTAH

CITY           SKY/WX    TMP DP  RH WIND       PRES   REMARKS
BRIGHAM CITY   PTCLDY    61  32  32 CALM      30.06R
HILL AFB       CLOUDY    65  38  36 VRB2      30.07R
LOGAN          CLEAR     51  41  68 CALM      30.09S
OGDEN          MOCLDY    62  37  39 NW3       30.05R
PROVO AIRPORT  CLEAR     61  46  59 CALM      30.06R
SALT LAKE CITY MOCLDY    67  39  35 N3        30.04R
VERNAL         PTCLDY    61  51  70 N6        30.12S
WENDOVER       PTCLDY    64  32  29 SW5       30.07S
HEBER CITY     PTCLDY    52  46  82 CALM      30.14R
WEST JORDAN    CLOUDY    64  37  36 N7        30.08R

$$

UTZ012>022-026-027-311200-

SOUTHERN/CENTRAL UTAH

CITY           SKY/WX    TMP DP  RH WIND       PRES   REMARKS
BLANDING       MOCLDY    57  53  85 N5        30.26R
BRYCE CANYON   CLEAR     45  42  89 W3        30.29S
CEDAR CITY     CLEAR     62  49  62 SW5       30.11R
DELTA          PTCLDY    61  40  45 NE5       30.04R
HANKSVILLE     PTCLDY    64  55  72 N8        30.07S
MILFORD        PTCLDY    62  44  51 E5        30.06R
MOAB/CYNLANDS  MOCLDY    65  58  78 SE9       30.07R
PRICE          CLEAR     57  51  80 NE6       30.15R
ST GEORGE      MOSUNNY   77  54  44 SE13      29.96S
KANAB          CLEAR     63  57  82 N10       30.17S

$$

REGIONAL REPORTS     COLORADO/ARIZONA

CITY           SKY/WX    TMP DP  RH WIND       PRES   REMARKS
CRAIG, CO      CLOUDY    57  50  77 E3        30.21F
GRAND JUNCTION CLOUDY    62  58  86 SE8       30.11S
RIFLE          CLOUDY    60  56  86 CALM      30.18F
MONTROSE       MOCLDY    57  54  89 S6        30.20S
CORTEZ         CLEAR     57  52  83 CALM      30.20R
PAGE, AZ       PTCLDY    67  59  75 CALM      30.08S
GRAND CANYON     N/A    N/A N/A N/A MISG      30.23S
KINGMAN        MOCLDY    76  41  28 S9        29.95R
FLAGSTAFF      PTCLDY    51  51 100 CALM      30.27F

$$

REGIONAL REPORTS    NEVADA/IDAHO/WYOMING

CITY           SKY/WX    TMP DP  RH WIND       PRES   REMARKS
LAS VEGAS, NV  PTCLDY    82  42  24 CALM      29.79S
ELY            CLEAR     46  28  49 S10       30.16R
ELKO           PTCLDY    48  18  30 NE6       30.11R
POCATELLO, ID  CLEAR     48  33  56 SW6       30.10R
BURLEY         CLEAR     50  39  66 SW7       30.09R
EVANSTON, WY   PTCLDY    53  40  61 E3        30.22R
ROCK SPRINGS   PTCLDY    53  49  86 W7        30.18S
KEMMERER       PTCLDY    46  32  57 N12       30.21S

$$


USA.gov is the U.S. government's official web portal to all federal, state and local government web resources and services.